NC0S Weather Reports


time (UTC)temp
F
wind
direction
speed
knots
gust
knots
rain 1hr
in
rain 24hr
in
rain mn
in
humidity
%
barometer
mb
20260505071028 53 347 0.0 1.7 0.21 0.62 0.62 81 1009.3
20260505070028 55 61 0.0 1.7 0.44 0.61 0.61 79 1008.5
20260505065028 56 357 0.0 3.5 0.57 0.60 0.60 78 1008.6
20260505064028 55 0.0 0.0 0.59 0.59 0.59 88 1008.5
20260505063028 56 15 0.0 1.7 0.57 0.57 0.57 84 1008.1
20260505062027 55 34 0.0 2.6 0.53 0.53 0.53 88 1007.7
20260505061129 56 0 0.0 3.5 0.41 0.41 0.41 83 1007.8
20260505060028 60 1 0.0 3.5 0.17 0.17 0.17 74 1007.2
20260505055028 62 13 1.7 6.1 0.03 0.03 0.03 60 1006.6
20260505054028 66 7 2.6 7.8 0.00 0.00 0.00 49 1006.1
20260505053028 68 41 4.3 9.6 0.00 0.00 0.00 46 1006.1
20260505052028 70 28 2.6 7.8 0.00 0.00 0.00 43 1005.9
20260505051028 70 335 1.7 5.2 0.00 0.00 0.00 63 1005.5
20260505041048 70 0.0 0.9 0.00 0.00 0.00 68 1004.8
20260505040028 70 149 0.9 2.6 0.00 0.00 0.00 68 1005.1
20260505035029 70 133 0.0 1.7 0.00 0.00 0.00 68 1004.9
20260505034028 70 0.0 0.9 0.00 0.00 0.00 68 1004.9
20260505033048 70 124 0.0 0.9 0.00 0.00 0.00 67 1005.0
20260505032028 71 0.0 1.7 0.00 0.00 0.00 66 1005.0
20260505031028 71 0.0 1.7 0.00 0.00 0.00 66 1004.8
20260505030048 71 0.0 0.0 0.00 0.00 0.00 64 1004.6
20260505025028 71 0.0 0.0 0.00 0.00 0.00 63 1004.6
20260505024028 72 0.0 0.0 0.00 0.00 0.00 62 1004.5
20260505023029 72 0.0 0.0 0.00 0.00 0.00 60 1004.3
20260505022028 72 0.0 0.0 0.00 0.00 0.00 60 1004.1
20260505021028 72 0.0 0.0 0.00 0.00 0.00 59 1003.9
20260505020108 72 0.0 0.0 0.00 0.00 0.00 60 1003.9
20260505015028 72 0.0 0.0 0.00 0.00 0.00 59 1003.8
20260505014028 72 0.0 0.0 0.00 0.00 0.00 58 1003.6
20260505013028 73 0.0 0.0 0.00 0.00 0.00 56 1003.5
20260505012029 74 0.0 0.0 0.00 0.00 0.00 55 1003.3
20260505011028 74 0.0 0.0 0.00 0.00 0.00 54 1003.3
20260505010028 75 0.0 0.0 0.00 0.00 0.00 51 1003.1
20260505005048 76 0.0 0.0 0.00 0.00 0.00 49 1003.0
20260505004028 78 0.0 0.0 0.00 0.00 0.00 48 1002.9
20260505003028 78 0.0 0.0 0.00 0.00 0.00 47 1002.8
20260505002028 78 0.0 0.0 0.00 0.00 0.00 46 1002.8
20260505001027 78 0.0 0.0 0.00 0.00 0.00 46 1002.7
20260505000048 79 0.0 0.0 0.00 0.00 0.00 45 1002.8
20260504235028 79 0.0 0.9 0.00 0.00 0.00 45 1002.7
20260504234028 79 142 0.0 0.9 0.00 0.00 0.00 44 1002.9
20260504233048 79 0.0 0.9 0.00 0.00 0.00 44 1002.8
20260504232029 80 129 0.0 1.7 0.00 0.00 0.00 44 1003.0
20260504231048 80 0.0 0.9 0.00 0.00 0.00 44 1002.9
20260504230029 81 0.0 1.7 0.00 0.00 0.00 43 1003.0
20260504225028 81 124 0.0 2.6 0.00 0.00 0.00 42 1002.9
20260504224028 81 126 0.0 1.7 0.00 0.00 0.00 42 1002.8
20260504223028 81 198 0.0 2.6 0.00 0.00 0.00 43 1002.8
20260504222049 81 112 0.0 3.5 0.00 0.00 0.00 43 1002.9
20260504221048 81 224 0.0 1.7 0.00 0.00 0.00 42 1003.0
20260504220028 80 230 0.0 0.9 0.00 0.00 0.00 44 1003.0
20260504215028 80 0.0 0.9 0.00 0.00 0.00 44 1003.2
20260504214028 80 237 0.0 0.9 0.00 0.00 0.00 43 1003.4
20260504213028 80 215 0.0 1.7 0.00 0.00 0.00 44 1003.4
20260504212108 80 127 0.0 1.7 0.00 0.00 0.00 42 1003.4
20260504211029 79 186 0.9 2.6 0.00 0.00 0.00 44 1003.5
20260504210028 79 253 0.0 5.2 0.00 0.00 0.00 43 1003.5
20260504205049 80 202 0.9 2.6 0.00 0.00 0.00 41 1003.7
20260504204028 81 206 0.0 0.9 0.00 0.00 0.00 42 1003.7
20260504203028 80 252 0.0 0.9 0.00 0.00 0.00 42 1003.8
20260504202028 81 232 0.0 0.9 0.00 0.00 0.00 43 1003.8
20260504201028 80 243 0.9 3.5 0.00 0.00 0.00 42 1003.8
20260504200048 80 184 0.9 1.7 0.00 0.00 0.00 41 1003.9
20260504195028 81 205 0.9 2.6 0.00 0.00 0.00 41 1003.9
20260504194028 81 196 0.0 2.6 0.00 0.00 0.00 45 1004.0
20260504193047 81 37 0.9 1.7 0.00 0.00 0.00 44 1003.9
20260504192028 80 159 0.0 2.6 0.00 0.00 0.00 44 1004.0
20260504191028 80 279 0.0 1.7 0.00 0.00 0.00 45 1004.1
20260504190028 80 206 0.9 1.7 0.00 0.00 0.00 44 1004.1
20260504185028 80 232 0.9 1.7 0.00 0.00 0.00 42 1004.2
20260504184029 80 235 0.9 1.7 0.00 0.00 0.00 42 1004.2
20260504183047 79 140 0.0 1.7 0.00 0.00 0.00 42 1004.3
20260504182028 79 244 0.0 1.7 0.00 0.00 0.00 42 1004.5
20260504181108 79 213 0.9 1.7 0.00 0.00 0.00 44 1004.5
20260504180028 79 246 0.9 2.6 0.00 0.00 0.00 43 1004.6
20260504175028 78 224 0.0 1.7 0.00 0.00 0.00 42 1004.8
20260504174028 78 259 0.0 1.7 0.00 0.00 0.00 43 1004.7
20260504173028 78 296 0.0 3.5 0.00 0.00 0.00 44 1004.7
20260504172028 78 189 0.9 5.2 0.00 0.00 0.00 44 1004.9
20260504171028 77 124 0.0 5.2 0.00 0.00 0.00 45 1004.8
20260504151048 73 235 0.9 2.6 0.00 0.00 0.00 48 1005.3
20260504141028 69 210 0.0 1.7 0.00 0.00 0.00 50 1005.1
20260504081028 66 183 0.0 3.5 0.00 0.00 0.00 48 1006.4